Preview of NWS' New Version of Forecast
This preview is not operational and should not be used for support decisions.

Regional Weather Roundup (RWR)

Issued by National Weather Service (NWS)

                            
000
ASUS42 KTBW 230617
RWRFL 
FLORIDA REGIONAL WEATHER ROUNDUP
NATIONAL WEATHER SERVICE TAMPA BAY RUSKIN FL
200 AM EDT SAT MAR 23 2019

NOTE: "FAIR" INDICATES FEW OR NO CLOUDS BELOW 12,000 FEET WITH NO
SIGNIFICANT WEATHER AND/OR OBSTRUCTIONS TO VISIBILITY.

FLZ001>010-012>015-112-114-115-230700-
PANHANDLE FLORIDA
  
CITY           SKY/WX    TMP DP  RH WIND       PRES   REMARKS
PENSACOLA      FAIR      53  49  86 NW6       30.14F                  
PENSACOLA NAS  FAIR      51  50  96 NW6       30.14F                  
MILTON NAS     FAIR      43  41  93 NW3       30.14F                  
CRESTVIEW      FAIR      39  36  89 CALM      30.16F                  
DUKE FIELD     FAIR      42  34  75 CALM      30.14F                  
VALPARAISO     FAIR      48  45  90 NW7       30.13F                  
MARY ESTHER    CLEAR     46  43  88 N7        30.13F WCI  43          
PANAMA CITY    FAIR      46  42  86 NW5       30.13F WCI  44          
TYNDALL AFB    FAIR      54  51  90 NW6       30.13F                  
APALACHICOLA   FAIR      51  47  86 NW3       30.12F                  

STATION/POSITION SKY/WX   TEMP    WIND        PRES    WAVE   SWELL
                          AIR SEA DIR/SP/G            HT/PER HT/PER
                          (F)     (DEG/KT/KT) (MB)    (FT/S) (FT/S)
30.1N   87.6W                                 1020.8F   1/ 3
29.2N   88.2W                     300/  6/  8 1021.0F   1
PANAMA CITY BEAC           59 65              1020.7F
TOWER C                    62     330/ 13/ 14 1019.8F

$$
FLZ011-016>038-118-127-128-134-139-239-230700-
NORTH FLORIDA
  
CITY           SKY/WX    TMP DP  RH WIND       PRES   REMARKS
MARIANNA       FAIR      46  43  89 CALM      30.13S                  
TALLAHASSEE    FAIR      44  36  73 CALM      30.13F                  
PERRY          CLOUDY    44  43  97 CALM      30.13S FOG              
LIVE OAK       PTCLDY    45  45 100 CALM      30.11F                  
CROSS CITY     FAIR      44  43  97 CALM      30.12S                  
LAKE CITY      FAIR      48  46  93 W3        30.11S                  
GAINESVILLE    FAIR      53  47  79 W3        30.14S                  
WILLISTON        N/A    N/A N/A N/A MISG        N/A                   
PALATKA        MOCLDY   N/A N/A N/A CALM      30.12S                  
MAYPORT NAS    FAIR      59  38  45 W7        30.10R                  
JACKSONVILLE   FAIR      47  36  65 W7        30.10R WCI  44          
JAX NAS        FAIR      54  39  57 W9        30.11S                  
JAX CECIL      FAIR     N/A N/A N/A CALM      30.11S                  
FERNANDINA BEA FAIR      55  35  46 W7        30.09S                  
ST AUGUSTINE   FAIR      53  45  74 W8        30.11F                  
PALM COAST     FAIR      50  46  83 CALM      30.12S                  

STATION/POSITION SKY/WX   TEMP    WIND        PRES    WAVE   SWELL
                          AIR SEA DIR/SP/G            HT/PER HT/PER
                          (F)     (DEG/KT/KT) (MB)    (FT/S) (FT/S)
SHELL POINT      NOT AVBL
KEATON BEACH               59        CALM     1020.0F
CEDAR KEY                  61     300/  4/  6 1020.0F
FERNANDINA                 57 62              1019.6S
30.7N   81.3W                 62                N/A     2/12   2/12
MAYPORT                    59 62              1019.1R
31.4N   80.9W              62 61  270/ 14/ 16 1018.0R   2/11   2/11
ST AUGUSTINE               56 62  270/  9/ 12 1019.4F

$$
FLZ040-043>046-052-053-057-058-063-144-230700-
INTERIOR CENTRAL FLORIDA
  
CITY           SKY/WX    TMP DP  RH WIND       PRES   REMARKS
OCALA          FAIR      44  43  96 CALM      30.14S                  
LEESBURG       FAIR      52  48  86 W3        30.13F                  
SANFORD        FAIR      52  46  80 W6        30.12S                  
ORLANDO EXEC   FAIR      57  47  69 NW5       30.12S                  
ORLANDO INTL   FAIR      55  45  68 W3        30.13S                  
KISSIMMEE      FAIR      52  47  83 NW3       30.14S                  
WINTER HAVEN   FAIR      56  47  71 NW5       30.13F                  
LAKELAND       FAIR      48  43  81 CALM      30.13F                  
BARTOW         FAIR      48  45  87 CALM      30.11F                  
SEBRING        FAIR      53  46  76 NW6       30.13R                  
OKEECHOBEE     FAIR      52  46  82 CALM      30.11S                  

$$
FLZ041-047-054-059-064-141-147-230700-
EAST CENTRAL FLORIDA
  
CITY           SKY/WX    TMP DP  RH WIND       PRES   REMARKS
DAYTONA BEACH  FAIR      51  46  83 W5        30.12S                  
DELAND         FAIR      54  45  71 W5        30.12S                  
JFK SPACE CTR  FAIR      55  46  72 W6        30.10F                  
CAPE CANAVERAL FAIR      58  47  68 W10       30.10S                  
PATRICK AFB    FAIR      59  48  67 NW16      30.11R                  
MELBOURNE      FAIR      56  45  66 NW10      30.11R                  
VERO BEACH     FAIR      54  46  74 NW5       30.10S                  
FT PIERCE      FAIR      52  45  77 NW6       30.10                   
STUART         FAIR      55  45  67 W5        30.12S                  

STATION/POSITION SKY/WX   TEMP    WIND        PRES    WAVE   SWELL
                          AIR SEA DIR/SP/G            HT/PER HT/PER
                          (F)     (DEG/KT/KT) (MB)    (FT/S) (FT/S)
28.5N   80.2W              63     290/ 16/ 19 1019.6S   3/ 7   3/ 7
28.9N   78.5W              72 74  270/ 14/ 17 1018.6S   5/ 7   3/ 7
TRIDENT PIER               59 67              1020.7R
28.4N   80.5W                 67                N/A     2/11   2/11
27.5N   80.2W                 69                N/A     3/11   2/11

$$
FLZ050-056-061-142-242-148-248-149-249-151-251-155-255-
160-260-230700-
WEST CENTRAL FLORIDA
  
CITY           SKY/WX    TMP DP  RH WIND       PRES   REMARKS
CRYSTAL RIVER  FAIR      43  43 100 CALM      30.14S                  
INVERNESS      FAIR      43  43 100 CALM      30.14S                  
BROOKSVILLE    FAIR      42  41  96 CALM      30.14S                  
CLEARWATER AIR FAIR      54  46  76 CALM      30.12F                  
ST PETE CLEARW FAIR      54  48  80 NW6       30.12F                  
TAMPA INTL     FAIR      56  48  74 N3        30.13F                  
TAMPA EXEC     FAIR      45  45 100 CALM      30.13F                  
PLANT CITY     FAIR      48  46  93 CALM      30.14F                  
MACDILL AFB    FAIR      57  47  69 N6        30.12F                  
PETER O KNIGHT MOCLDY    59  50  72 CALM      30.13S                  
ST PETERSBURG  FAIR      61  49  64 N5        30.10F                  
SARASOTA       FAIR      54  49  83 CALM      30.10F                  
VENICE         FAIR      55  48  76 NE5       30.12F                  

STATION/POSITION SKY/WX   TEMP    WIND        PRES    WAVE   SWELL
                          AIR SEA DIR/SP/G            HT/PER HT/PER
                          (F)     (DEG/KT/KT) (MB)    (FT/S) (FT/S)
27.3N   84.2W                 72                N/A     3/ 6
CLEARWATER BEACH           64 68              1020.0F
MIDDLE TAMPA BAY           63                 1020.1F
VENICE                     60 71   30/  5/  7 1019.7F

$$
FLZ066-069-070-075>078-162-262-165-265-230700-
SOUTHWEST FLORIDA AND KEYS
  
CITY           SKY/WX    TMP DP  RH WIND       PRES   REMARKS
PUNTA GORDA    FAIR      51  48  89 S3        30.14S                  
FT MYERS       FAIR      55  50  83 CALM      30.11F                  
SOUTHWEST INTL FAIR      60  47  61 NW3       30.11F                  
NAPLES         FAIR      60  54  80 CALM      30.11F                  
MARCO ISLAND   FAIR      61  55  81 N5        30.12F                  
IMMOKALEE      FAIR      50  48  93 CALM      30.10F                  
MARATHON       FAIR      69  54  58 N7        30.11F                  
KEY WEST NAS   FAIR      67  52  58 NE5       30.12F                  
KEY WEST INTL  FAIR      65  56  72 N3        30.12F                  

STATION/POSITION SKY/WX   TEMP    WIND        PRES    WAVE   SWELL
                          AIR SEA DIR/SP/G            HT/PER HT/PER
                          (F)     (DEG/KT/KT) (MB)    (FT/S) (FT/S)
NAPLES                     67 71              1019.6F
26.0N   85.6W              70 79   10/  8/ 12 1020.3
DRY TORTUGAS               69      20/  5/  6 1020.0F
SAND KEY                   68                 1020.1F
SOMBRERO KEY               69                 1019.2F
MOLASSES REEF              67 78  350/ 14/ 14 1019.9

$$
FLZ067-068-071>074-168-172>174-230700-
SOUTHEAST FLORIDA 
  
CITY           SKY/WX    TMP DP  RH WIND       PRES   REMARKS
W PALM BEACH   FAIR      57  50  77 NW5       30.11F                  
FT LAUDER-EXEC FAIR      61  51  70 W5        30.10F                  
FT LAUDERDALE  FAIR      62  51  67 W5        30.10F                  
POMPANO BEACH  FAIR      61  51  70 W7        30.10F                  
PEMBROKE PINES FAIR      59  51  75 NW6       30.12F                  
OPA LOCKA      FAIR      63  51  65 NW8       30.12F                  
MIAMI          FAIR      63  50  62 NW5       30.11F                  
WEST KENDALL   FAIR      60  53  77 CALM      30.11F                  
HOMESTEAD      FAIR      57  52  83 NW3       30.10F                  

STATION/POSITION SKY/WX   TEMP    WIND        PRES    WAVE   SWELL
                          AIR SEA DIR/SP/G            HT/PER HT/PER
                          (F)     (DEG/KT/KT) (MB)    (FT/S) (FT/S)
PORT EVERGLADES            65     290/ 10/ 13 1019.6
VIRGINIA KEY               66 76              1018.9F
LAKE WORTH                 62 74              1020.3F
FOWEY ROCKS                66 77  300/ 13/ 14 1020.0F
SETTLEMENT POINT           66     130/  5/  7 1019.1F

$$